Regional Weather Roundup
Issued by NWS Sioux Falls, SD

Home | Current Version | Previous Version | Text Only | Print | Product List | Glossary On
Versions: 1 2 3 4 5 6 7 8 9 10 11 12 13 14 15 16 17 18 19 20 21 22 23 24 25 26 27 28 29 30 31 32 33 34 35 36 37 38 39 40 41 42 43 44 45 46 47 48 49 50
000
ASUS43 KFSD 280110
RWRFSD

WEATHER ROUNDUP FOR SE SOUTH DAKOTA/SW MINNESOTA/NW IOWA
NATIONAL WEATHER SERVICE SIOUX FALLS SD
800 PM CDT WED MAY 27 2015

NOTE: "FAIR" INDICATES FEW OR NO CLOUDS BELOW 12,000 FEET WITH NO
SIGNIFICANT WEATHER AND OR OBSTRUCTIONS TO VISIBILITY.


SDZ038>040-050-052>070-280200-
SOUTHEAST SOUTH DAKOTA

CITY           SKY/WX    TMP DP  RH WIND       PRES   REMARKS
BROOKINGS      CLOUDY    79  50  36 SW7       29.99R
CHAMBERLAIN    PTSUNNY   73  52  48 S9        29.95S
HURON            N/A    N/A N/A N/A MISG      29.95S
MADISON        FAIR      77  48  36 S9        30.00R
MITCHELL       PTCLDY    79  51  37 S7        29.97R
SIOUX FALLS    PTCLDY    76  52  43 SW6       29.99R
WINNER         FAIR      75  50  41 SE13      29.95S
YANKTON        PTCLDY    79  46  31 CALM      29.97R
$$

MNZ071-072-080-081-089-090-097-098-280200-
SOUTHWEST MINNESOTA

CITY           SKY/WX    TMP DP  RH WIND       PRES   REMARKS
FAIRMONT       CLEAR     81  48  32 S5        29.99S
JACKSON        MOCLDY    77  52  41 S5        30.01S
LUVERNE        PTCLDY    79  50  36 SW6       29.99S
MARSHALL       PTCLDY    82  46  28 SE3       29.97R
MONTEVIDEO     MOCLDY    82  48  30 CALM      29.97R
REDWOOD FALLS  PTCLDY    82  44  26 E3        29.96S
TRACY          PTCLDY    82  48  30 CALM      29.98S
WINDOM         PTCLDY    81  45  28 CALM      29.99S
WORTHINGTON    PTCLDY    79  46  31 SW6       30.00S
$$

IAZ001>003-012>014-020>022-031-032-NEZ013-014-SDZ071-280200-
NORTHWEST IOWA

CITY           SKY/WX    TMP DP  RH WIND       PRES   REMARKS
CHEROKEE       CLEAR     76  52  43 S9        30.01S
DENISON        PTCLDY    77  57  50 CALM      30.01S
ESTHERVILLE    CLEAR     76  54  46 S6        30.00R
LE MARS        CLEAR     79  52  38 S7        30.00S
ORANGE CITY    CLEAR     75  50  41 S6        30.01R
SHELDON        CLEAR     79  77  94 SW6       29.99S
SIOUX CITY     PTCLDY    78  53  41 S12       29.99S
SPENCER        PTCLDY    80  51  36 SW8       30.00S
STORM LAKE     CLEAR     79  50  36 S7        30.03S
$$

ABBREVIATIONS USED IN REMARKS
   TC - TEMPERATURE IN CELSIUS
  WCI - WIND CHILL INDEX
   HX - HEAT INDEX
  VSB - VISIBILITY



USA.gov is the U.S. government's official web portal to all federal, state and local government web resources and services.